Powrót do katalogu

ARIANE 5 R/B

AktywnyHEO
NORAD 39618·ROCKET BODY·🇫🇷 France

Wystrzelony Mar 22, 2014 z Guiana Space Centre

Loading…

Następne Przeloty (najbliższe 24 godziny)

TLE

ŚwieżeSource: Space-Track

Epoka: Sep 14, 2026, 05:44 UTC

1 39618U 14011C   26257.23951755  .00004339  00000-0  10509-2 0  9999
2 39618   3.0453  82.8023 7040285 291.5458  10.5136  2.59053574110331

Śledź ARIANE 5 R/B w czasie rzeczywistym z AllMySat

Download on the App Store